IW3HBX-13 Weather Reports


Display with metric or nautical units.
time (UTC)temp
F
wind
direction
speed
MPH
gust
MPH
rain 1hr
in
rain 24hr
in
rain mn
in
humidity
%
barometer
mb
20260504100607 72 69 3.0 4.0 0.00 0.00 0.00 51 1017.9
20260504081808 69 55 4.0 6.0 0.00 0.00 0.00 57 1018.3
20260504081207 69 64 3.0 6.0 0.00 0.00 0.00 57 1018.2
20260504080608 68 65 3.0 5.0 0.00 0.00 0.00 57 1018.3
20260504050607 59 63 1.0 2.0 0.00 0.00 0.00 67 1017.5
20260504045407 58 303 1.0 2.0 0.00 0.00 0.00 69 1017.5
20260504044809 59 322 2.0 2.0 0.00 0.00 0.00 68 1017.4
20260504044207 59 72 1.0 3.0 0.00 0.00 0.00 68 1017.3
20260504043607 58 71 1.0 2.0 0.00 0.00 0.00 69 1017.3
20260504043007 58 71 1.0 2.0 0.00 0.00 0.00 69 1017.2
20260504042407 57 72 1.0 3.0 0.00 0.00 0.00 70 1017.2
20260504041809 57 72 1.0 3.0 0.00 0.00 0.00 71 1017.0
20260504041207 57 64 2.0 3.0 0.00 0.00 0.00 71 1017.0
20260504040607 57 68 3.0 4.0 0.00 0.00 0.00 72 1017.1
20260504035409 57 73 3.0 3.0 0.00 0.00 0.00 72 1017.1
20260504034807 57 72 2.0 4.0 0.00 0.00 0.00 72 1017.0
20260504034208 57 64 2.0 5.0 0.00 0.00 0.00 72 1017.0
20260504033607 57 72 3.0 4.0 0.00 0.00 0.00 72 1017.1
20260504033007 57 70 2.0 2.0 0.00 0.00 0.00 72 1017.1
20260504032409 57 72 2.0 4.0 0.00 0.00 0.00 72 1017.1
20260504031807 57 32 0.0 1.0 0.00 0.00 0.00 73 1017.1
20260504031208 57 32 1.0 2.0 0.00 0.00 0.00 73 1017.1
20260504030607 57 62 0.0 0.0 0.00 0.00 0.00 73 1017.1
20260504025408 58 70 0.0 0.0 0.00 0.00 0.00 72 1017.2
20260504024808 58 70 1.0 2.0 0.00 0.00 0.00 72 1017.2
20260504024209 58 72 2.0 3.0 0.00 0.00 0.00 72 1017.2
20260504023608 58 65 2.0 4.0 0.00 0.00 0.00 72 1017.2
20260504023007 58 74 2.0 3.0 0.00 0.00 0.00 72 1017.2
20260504022407 58 68 1.0 3.0 0.00 0.00 0.00 73 1017.2
20260504021807 58 49 1.0 2.0 0.00 0.00 0.00 73 1017.2
20260504021207 58 306 1.0 2.0 0.00 0.00 0.00 74 1017.2
20260504020609 58 306 0.0 0.0 0.00 0.00 0.00 74 1017.2
20260504015407 57 306 0.0 2.0 0.00 0.00 0.00 75 1017.2
20260504014807 58 302 0.0 0.0 0.00 0.00 0.00 75 1017.1
20260504014210 58 336 0.0 0.0 0.00 0.00 0.00 75 1017.2
20260504013607 58 336 1.0 2.0 0.00 0.00 0.00 74 1017.2
20260504013007 58 336 0.0 0.0 0.00 0.00 0.00 74 1017.2
20260504012407 58 334 0.0 0.0 0.00 0.00 0.00 74 1017.2
20260504011811 58 324 0.0 0.0 0.00 0.00 0.00 74 1017.2
20260504011209 58 324 0.0 1.0 0.00 0.00 0.00 74 1017.2
20260504010607 58 324 0.0 2.0 0.00 0.00 0.00 74 1017.2
20260504005409 58 328 1.0 2.0 0.00 0.00 0.00 73 1017.2
20260504004809 59 332 2.0 2.0 0.00 0.00 0.00 73 1017.3
20260504004209 59 351 1.0 2.0 0.00 0.00 0.00 72 1017.3
20260504003607 59 346 0.0 1.0 0.00 0.00 0.00 72 1017.3
20260504003007 60 72 1.0 2.0 0.00 0.00 0.00 72 1017.4
20260504002407 60 66 0.0 1.0 0.00 0.00 0.00 71 1017.3
20260504001811 61 66 0.0 1.0 0.00 0.00 0.00 68 1017.3
20260504001208 61 66 0.0 0.0 0.00 0.00 0.00 68 1017.4
20260504000607 61 66 0.0 0.0 0.00 0.00 0.00 68 1017.4
20260503235407 61 66 1.0 1.0 0.00 0.00 0.00 67 1017.4
20260503234809 61 66 1.0 2.0 0.00 0.00 0.00 68 1017.4
20260503234211 61 66 0.0 1.0 0.00 0.00 0.00 68 1017.4
20260503233607 61 66 1.0 2.0 0.00 0.00 0.00 68 1017.5
20260503233009 61 66 0.0 0.0 0.00 0.00 0.00 68 1017.6
20260503232407 61 66 1.0 2.0 0.00 0.00 0.00 68 1017.5
20260503231807 60 66 2.0 3.0 0.00 0.00 0.00 69 1017.6
20260503231208 60 80 1.0 2.0 0.00 0.00 0.00 71 1017.5
20260503230609 59 80 0.0 0.0 0.00 0.00 0.00 73 1017.6
20260503225407 59 80 0.0 0.0 0.00 0.00 0.00 73 1017.8
20260503224807 59 80 0.0 0.0 0.00 0.00 0.00 73 1017.8
20260503224207 60 80 0.0 0.0 0.00 0.00 0.00 71 1017.8
20260503223607 59 80 0.0 0.0 0.00 0.00 0.00 73 1017.8
20260503223009 59 80 0.0 0.0 0.00 0.00 0.00 73 1017.8
20260503221807 60 80 0.0 0.0 0.00 0.00 0.00 71 1017.7
20260503221211 60 80 0.0 0.0 0.00 0.00 0.00 71 1017.8
20260503220611 60 80 0.0 0.0 0.00 0.00 0.00 71 1017.8
20260503214810 61 80 0.0 0.0 0.00 0.00 0.00 69 1017.8
20260503214207 61 80 0.0 0.0 0.00 0.00 0.00 68 1017.7
20260503213607 61 80 0.0 0.0 0.00 0.00 0.00 69 1017.8
20260503213007 61 80 0.0 0.0 0.00 0.00 0.00 68 1017.7
20260503211809 61 80 0.0 1.0 0.00 0.00 0.00 67 1017.6
20260503211208 61 80 0.0 0.0 0.00 0.00 0.00 67 1017.6
20260503210609 62 80 0.0 0.0 0.00 0.00 0.00 67 1017.7
20260503204807 62 80 0.0 0.0 0.00 0.00 0.00 66 1017.5
20260503204207 62 80 1.0 2.0 0.00 0.00 0.00 65 1017.4
20260503203607 63 80 2.0 2.0 0.00 0.00 0.00 65 1017.5
20260503203007 63 72 1.0 2.0 0.00 0.00 0.00 65 1017.5
20260503201807 63 53 1.0 2.0 0.00 0.00 0.00 66 1017.5
20260503201207 63 47 1.0 2.0 0.00 0.00 0.00 66 1017.6
20260503200608 63 302 1.0 2.0 0.00 0.00 0.00 66 1017.4
20260503194810 64 0 3.0 3.0 0.00 0.00 0.00 66 1017.4
20260503194207 64 162 0.0 1.0 0.00 0.00 0.00 66 1017.3
20260503193610 64 168 0.0 0.0 0.00 0.00 0.00 66 1017.2
20260503193009 64 168 0.0 0.0 0.00 0.00 0.00 67 1017.3
20260503192409 64 168 0.0 1.0 0.00 0.00 0.00 65 1017.2
20260503191808 64 168 1.0 2.0 0.00 0.00 0.00 64 1017.3
20260503191207 64 172 0.0 0.0 0.00 0.00 0.00 64 1017.2
20260503190607 64 172 1.0 2.0 0.00 0.00 0.00 63 1017.1
20260503184809 65 117 1.0 2.0 0.00 0.00 0.00 62 1016.9
20260503184207 65 105 2.0 3.0 0.00 0.00 0.00 61 1016.8
20260503183607 65 104 3.0 4.0 0.00 0.00 0.00 61 1016.6
20260503183007 65 114 2.0 2.0 0.00 0.00 0.00 61 1016.7
20260503181807 66 90 1.0 2.0 0.00 0.00 0.00 59 1016.6
20260503181207 66 81 2.0 2.0 0.00 0.00 0.00 59 1016.7
20260503180607 67 108 1.0 2.0 0.00 0.00 0.00 59 1016.7
20260503174809 68 106 3.0 4.0 0.00 0.00 0.00 56 1016.6
20260503174207 68 55 1.0 2.0 0.00 0.00 0.00 55 1016.6
20260503173607 69 108 3.0 4.0 0.00 0.00 0.00 54 1016.6
20260503173007 69 99 2.0 3.0 0.00 0.00 0.00 53 1016.5
20260503171810 70 56 2.0 5.0 0.00 0.00 0.00 52 1016.5
20260503171207 71 69 2.0 2.0 0.00 0.00 0.00 50 1016.5
20260503170607 71 82 3.0 4.0 0.00 0.00 0.00 48 1016.6
20260503150608 76 113 4.0 6.0 0.00 0.00 0.00 43 1017.3
20260503131207 78 134 4.0 7.0 0.00 0.00 0.00 40 1018.1
20260503130607 77 120 4.0 6.0 0.00 0.00 0.00 40 1018.0
20260503110610 78 145 2.0 3.0 0.00 0.00 0.00 38 1018.8